ITY2050 LIRF-LIML

Flight info

Callsign ITY2050
Flight time 0h 48m
Altitude 32000
Route GILIO DCT KARDU DCT EMBOS DCT GIPIX DCT KALMO
Aircraft A320/M-SDE3FGHIRWY/LB1

Departure

Time 2026-05-06 17:57
Airport Rome–Fiumicino Leonardo da Vinci International Airport (LIRF)

Arrival

Time 2026-05-06 18:46
Airport Milano Linate Airport (LIML)
Time Latitude Longitude Altitude Speed Heading
2026-05-06 17:27 41.79617 12.25570 14 ft 0 kts 295°
2026-05-06 17:46 41.79616 12.25570 15 ft 1 kts 295°
2026-05-06 17:47 41.79606 12.25599 14 ft 4 kts 289°
2026-05-06 17:47 41.79605 12.25624 16 ft 2 kts 246°
2026-05-06 17:47 41.79610 12.25650 16 ft 4 kts 311°
2026-05-06 17:47 41.79589 12.25659 16 ft 4 kts
2026-05-06 17:48 41.79609 12.25656 16 ft 4 kts 351°
2026-05-06 17:48 41.79634 12.25662 15 ft 4 kts 23°
2026-05-06 17:48 41.79653 12.25675 15 ft 4 kts 25°
2026-05-06 17:48 41.79670 12.25686 14 ft 0 kts 25°
2026-05-06 17:50 41.79671 12.25686 14 ft 1 kts 25°
2026-05-06 17:51 41.79712 12.25712 14 ft 11 kts 25°
2026-05-06 17:51 41.79775 12.25752 14 ft 9 kts 25°
2026-05-06 17:51 41.79835 12.25791 14 ft 11 kts 27°
2026-05-06 17:51 41.79910 12.25844 14 ft 16 kts 26°
2026-05-06 17:52 41.80026 12.25918 14 ft 19 kts 24°
2026-05-06 17:52 41.80137 12.25986 15 ft 17 kts 24°
2026-05-06 17:52 41.80235 12.26047 14 ft 14 kts 25°
2026-05-06 17:52 41.80320 12.26099 14 ft 12 kts 24°
2026-05-06 17:53 41.80402 12.26150 16 ft 13 kts 25°
2026-05-06 17:53 41.80490 12.26176 16 ft 13 kts 356°
2026-05-06 17:53 41.80572 12.26192 17 ft 11 kts 24°
2026-05-06 17:53 41.80627 12.26207 17 ft 5 kts 354°
2026-05-06 17:54 41.80636 12.26204 18 ft 0 kts 345°
2026-05-06 17:55 41.80665 12.26193 18 ft 12 kts 342°
2026-05-06 17:56 41.80734 12.26151 21 ft 7 kts 313°
2026-05-06 17:56 41.80729 12.26101 19 ft 5 kts 248°
2026-05-06 17:56 41.80682 12.25933 17 ft 52 kts 249°
2026-05-06 17:56 41.80473 12.25172 18 ft 119 kts 250°
2026-05-06 17:57 41.80118 12.23892 50 ft 167 kts 245°
2026-05-06 17:57 41.79711 12.22441 726 ft 166 kts 245°
2026-05-06 17:57 41.79340 12.20989 1447 ft 168 kts 255°
2026-05-06 17:57 41.79258 12.19347 1877 ft 187 kts 263°
2026-05-06 17:58 41.79210 12.17498 2125 ft 210 kts 263°
2026-05-06 17:58 41.79153 12.15433 2432 ft 234 kts 264°
2026-05-06 17:58 41.79091 12.13142 2903 ft 255 kts 264°
2026-05-06 17:58 41.79031 12.10730 3708 ft 262 kts 265°
2026-05-06 17:59 41.78986 12.08274 4633 ft 265 kts 266°
2026-05-06 17:59 41.78979 12.05795 5542 ft 267 kts 268°
2026-05-06 17:59 41.78989 12.03306 6465 ft 267 kts 267°
2026-05-06 17:59 41.79000 12.00815 7327 ft 269 kts 268°
2026-05-06 18:00 41.79008 11.98300 8171 ft 271 kts 268°
2026-05-06 18:00 41.79007 11.95762 9032 ft 273 kts 268°
2026-05-06 18:00 41.78999 11.93248 9855 ft 275 kts 268°
2026-05-06 18:00 41.78989 11.90648 10386 ft 288 kts 268°
2026-05-06 18:01 41.78977 11.87858 10614 ft 311 kts 269°
2026-05-06 18:01 41.79219 11.84903 11032 ft 327 kts 281°
2026-05-06 18:01 41.79990 11.82004 11716 ft 334 kts 294°
2026-05-06 18:01 41.81160 11.79290 12440 ft 339 kts 298°
2026-05-06 18:02 41.82378 11.76557 13115 ft 344 kts 298°
2026-05-06 18:02 41.83607 11.73780 13767 ft 349 kts 298°
2026-05-06 18:02 41.84849 11.70963 14371 ft 353 kts 297°
2026-05-06 18:02 41.86103 11.68120 14993 ft 356 kts 297°
2026-05-06 18:03 41.87369 11.65247 15644 ft 358 kts 297°
2026-05-06 18:03 41.88642 11.62363 16276 ft 361 kts 297°
2026-05-06 18:03 41.89963 11.59532 16867 ft 366 kts 302°
2026-05-06 18:03 41.91652 11.56932 17480 ft 373 kts 309°
2026-05-06 18:04 41.93447 11.54404 18081 ft 376 kts 309°
2026-05-06 18:04 41.95259 11.51847 18629 ft 379 kts 309°
2026-05-06 18:04 41.97079 11.49273 19176 ft 380 kts 309°
2026-05-06 18:04 41.98904 11.46684 19735 ft 382 kts 308°
2026-05-06 18:05 42.00735 11.44084 20294 ft 384 kts 308°
2026-05-06 18:05 42.02574 11.41468 20862 ft 385 kts 308°
2026-05-06 18:05 42.04416 11.38845 21420 ft 387 kts 308°
2026-05-06 18:05 42.06271 11.36204 21973 ft 390 kts 308°
2026-05-06 18:06 42.08140 11.33542 22497 ft 392 kts 307°
2026-05-06 18:06 42.10018 11.30865 23040 ft 394 kts 307°
2026-05-06 18:06 42.11904 11.28181 23581 ft 396 kts 306°
2026-05-06 18:06 42.13801 11.25480 24003 ft 397 kts 306°
2026-05-06 18:07 42.15705 11.22762 24415 ft 400 kts 306°
2026-05-06 18:07 42.17613 11.20024 24806 ft 402 kts 306°
2026-05-06 18:07 42.19534 11.17265 25186 ft 404 kts 306°
2026-05-06 18:07 42.21463 11.14496 25559 ft 406 kts 306°
2026-05-06 18:08 42.23408 11.11704 25924 ft 409 kts 306°
2026-05-06 18:08 42.25339 11.08930 26279 ft 411 kts 306°
2026-05-06 18:08 42.27328 11.06071 26637 ft 414 kts 306°
2026-05-06 18:08 42.29278 11.03269 26979 ft 416 kts 306°
2026-05-06 18:09 42.31263 11.00412 27321 ft 418 kts 306°
2026-05-06 18:09 42.33260 10.97530 27664 ft 420 kts 306°
2026-05-06 18:09 42.35291 10.94675 27999 ft 426 kts 310°
2026-05-06 18:09 42.37638 10.92159 28327 ft 437 kts 320°
2026-05-06 18:10 42.40321 10.90141 28641 ft 446 kts 327°
2026-05-06 18:10 42.43112 10.88281 28951 ft 448 kts 327°
2026-05-06 18:10 42.45912 10.86410 29250 ft 450 kts 327°
2026-05-06 18:10 42.48726 10.84523 29548 ft 452 kts 327°
2026-05-06 18:11 42.51552 10.82621 29852 ft 454 kts 327°
2026-05-06 18:11 42.53423 10.81358 30041 ft 455 kts 327°
2026-05-06 18:11 42.57233 10.78784 30373 ft 457 kts 327°
2026-05-06 18:11 42.60088 10.76857 30604 ft 459 kts 327°
2026-05-06 18:12 42.62947 10.74929 30829 ft 460 kts 327°
2026-05-06 18:12 42.65818 10.72986 31053 ft 462 kts 326°
2026-05-06 18:12 42.68695 10.71035 31358 ft 461 kts 326°
2026-05-06 18:12 42.71556 10.69096 31665 ft 460 kts 326°
2026-05-06 18:13 42.74396 10.67168 31913 ft 460 kts 326°
2026-05-06 18:13 42.77223 10.65252 31943 ft 447 kts 326°
2026-05-06 18:13 42.82679 10.61553 31943 ft 437 kts 326°
2026-05-06 18:14 42.88118 10.57840 31949 ft 436 kts 326°
2026-05-06 18:14 42.93552 10.54123 31939 ft 437 kts 326°
2026-05-06 18:15 42.99181 10.50844 31945 ft 448 kts 338°
2026-05-06 18:15 43.05358 10.49142 31945 ft 453 kts 342°
2026-05-06 18:16 43.11508 10.47539 31945 ft 453 kts 342°
2026-05-06 18:16 43.17699 10.45899 31957 ft 453 kts 342°
2026-05-06 18:17 43.23886 10.44256 31950 ft 453 kts 342°
2026-05-06 18:17 43.30085 10.42612 31934 ft 453 kts 342°
2026-05-06 18:18 43.36279 10.40975 31952 ft 453 kts 342°
2026-05-06 18:18 43.42475 10.39336 31937 ft 453 kts 342°
2026-05-06 18:19 43.48674 10.37690 31938 ft 453 kts 342°
2026-05-06 18:19 43.54872 10.36035 31936 ft 453 kts 342°
2026-05-06 18:20 43.60017 10.34650 31950 ft 454 kts 342°
2026-05-06 18:20 43.66216 10.32986 31936 ft 454 kts 342°
2026-05-06 18:21 43.72418 10.31322 31937 ft 454 kts 342°
2026-05-06 18:21 43.75511 10.30495 31770 ft 449 kts 342°
2026-05-06 18:21 43.79523 10.29431 31453 ft 439 kts 342°
2026-05-06 18:22 43.81543 10.28880 31283 ft 435 kts 339°
2026-05-06 18:22 43.84394 10.27675 31028 ft 423 kts 329°
2026-05-06 18:22 43.87032 10.25961 30781 ft 416 kts 325°
2026-05-06 18:22 43.89579 10.24196 30544 ft 413 kts 325°
2026-05-06 18:23 43.92147 10.22438 30153 ft 409 kts 325°
2026-05-06 18:23 43.94691 10.20706 29693 ft 407 kts 325°
2026-05-06 18:23 43.97225 10.18984 29281 ft 403 kts 325°
2026-05-06 18:23 43.99733 10.17282 28850 ft 399 kts 325°
2026-05-06 18:24 44.02215 10.15591 28442 ft 395 kts 325°
2026-05-06 18:24 44.04568 10.13716 28027 ft 383 kts 315°
2026-05-06 18:24 44.06579 10.11385 27610 ft 370 kts 306°
2026-05-06 18:24 44.08215 10.08727 27234 ft 356 kts 296°
2026-05-06 18:25 44.09592 10.05906 26843 ft 351 kts 295°
2026-05-06 18:25 44.10957 10.03109 26467 ft 347 kts 296°
2026-05-06 18:25 44.12307 10.00352 26081 ft 344 kts 296°
2026-05-06 18:25 44.13653 9.97612 25691 ft 340 kts 296°
2026-05-06 18:26 44.14980 9.94907 25305 ft 338 kts 296°
2026-05-06 18:26 44.16299 9.92206 24906 ft 335 kts 296°
2026-05-06 18:26 44.17606 9.89523 24494 ft 333 kts 296°
2026-05-06 18:26 44.18899 9.86855 24121 ft 331 kts 296°
2026-05-06 18:27 44.20184 9.84198 23704 ft 330 kts 296°
2026-05-06 18:27 44.21469 9.81546 23255 ft 329 kts 296°
2026-05-06 18:27 44.22733 9.78947 22836 ft 327 kts 296°
2026-05-06 18:27 44.24007 9.76331 22435 ft 325 kts 296°
2026-05-06 18:28 44.25271 9.73729 22042 ft 322 kts 296°
2026-05-06 18:28 44.26510 9.71172 21658 ft 320 kts 296°
2026-05-06 18:28 44.27748 9.68609 21271 ft 318 kts 296°
2026-05-06 18:28 44.28980 9.66050 20877 ft 316 kts 296°
2026-05-06 18:29 44.30206 9.63512 20491 ft 314 kts 296°
2026-05-06 18:29 44.31471 9.61022 20119 ft 315 kts 302°
2026-05-06 18:29 44.33048 9.58854 19707 ft 323 kts 314°
2026-05-06 18:29 44.34922 9.57157 19310 ft 329 kts 322°
2026-05-06 18:30 44.36909 9.55537 18892 ft 329 kts 322°
2026-05-06 18:30 44.38888 9.53916 18470 ft 329 kts 322°
2026-05-06 18:30 44.40861 9.52291 18041 ft 329 kts 322°
2026-05-06 18:30 44.42833 9.50665 17601 ft 329 kts 322°
2026-05-06 18:31 44.44738 9.49099 17216 ft 328 kts 322°
2026-05-06 18:31 44.46709 9.47481 16797 ft 328 kts 323°
2026-05-06 18:31 44.48673 9.45867 16425 ft 327 kts 323°
2026-05-06 18:31 44.50623 9.44261 16018 ft 325 kts 323°
2026-05-06 18:32 44.52560 9.42659 15639 ft 322 kts 323°
2026-05-06 18:32 44.54489 9.41061 15266 ft 322 kts 323°
2026-05-06 18:32 44.56417 9.39464 14935 ft 320 kts 323°
2026-05-06 18:32 44.58337 9.37906 14652 ft 318 kts 328°
2026-05-06 18:33 44.60411 9.36814 14365 ft 321 kts 341°
2026-05-06 18:33 44.62613 9.36382 13837 ft 324 kts 352°
2026-05-06 18:33 44.64802 9.36160 13394 ft 318 kts 350°
2026-05-06 18:33 44.66995 9.35948 13083 ft 315 kts 353°
2026-05-06 18:34 44.69165 9.35745 12939 ft 304 kts 351°
2026-05-06 18:34 44.71251 9.35548 12759 ft 297 kts 352°
2026-05-06 18:34 44.73293 9.35345 12468 ft 296 kts 349°
2026-05-06 18:34 44.75339 9.35135 12095 ft 295 kts 352°
2026-05-06 18:35 44.77374 9.34926 11712 ft 292 kts 351°
2026-05-06 18:35 44.79407 9.34719 11359 ft 292 kts 351°
2026-05-06 18:35 44.81444 9.34514 10970 ft 294 kts 352°
2026-05-06 18:35 44.83462 9.34312 10798 ft 286 kts 352°
2026-05-06 18:36 44.85433 9.34107 10305 ft 283 kts 352°
2026-05-06 18:36 44.87385 9.33897 9824 ft 279 kts 351°
2026-05-06 18:36 44.89307 9.33688 9421 ft 276 kts 351°
2026-05-06 18:36 44.91219 9.33477 9068 ft 275 kts 352°
2026-05-06 18:37 44.93117 9.33266 8696 ft 273 kts 352°
2026-05-06 18:37 44.95003 9.33057 8426 ft 268 kts 352°
2026-05-06 18:37 44.96820 9.32862 8361 ft 255 kts 351°
2026-05-06 18:37 44.98567 9.32673 8233 ft 251 kts 351°
2026-05-06 18:38 45.00315 9.32484 7895 ft 251 kts 351°
2026-05-06 18:38 45.02018 9.32301 7645 ft 247 kts 352°
2026-05-06 18:38 45.03726 9.32119 7354 ft 245 kts 352°
2026-05-06 18:38 45.05421 9.31923 7052 ft 244 kts 352°
2026-05-06 18:39 45.07105 9.31715 6742 ft 242 kts 352°
2026-05-06 18:39 45.08783 9.31530 6453 ft 241 kts 352°
2026-05-06 18:39 45.10455 9.31353 6158 ft 240 kts 352°
2026-05-06 18:40 45.13765 9.31001 5750 ft 238 kts 353°
2026-05-06 18:40 45.15416 9.30825 5639 ft 238 kts 353°
2026-05-06 18:40 45.17072 9.30648 5438 ft 238 kts 353°
2026-05-06 18:40 45.18714 9.30473 5150 ft 236 kts 353°
2026-05-06 18:41 45.20351 9.30298 4840 ft 235 kts 353°
2026-05-06 18:41 45.21982 9.30124 4527 ft 234 kts 355°
2026-05-06 18:41 45.23606 9.29950 4210 ft 234 kts 355°
2026-05-06 18:41 45.25207 9.29779 3903 ft 233 kts 355°
2026-05-06 18:42 45.26825 9.29606 3592 ft 233 kts 355°
2026-05-06 18:42 45.28427 9.29434 3286 ft 226 kts 355°
2026-05-06 18:42 45.29962 9.29270 2991 ft 217 kts 355°
2026-05-06 18:42 45.31433 9.29113 2747 ft 206 kts 355°
2026-05-06 18:43 45.32825 9.28964 2460 ft 195 kts 355°
2026-05-06 18:43 45.34143 9.28822 2187 ft 185 kts 355°
2026-05-06 18:43 45.35373 9.28690 1955 ft 168 kts 355°
2026-05-06 18:43 45.36499 9.28567 1695 ft 156 kts 356°
2026-05-06 18:44 45.37551 9.28458 1458 ft 148 kts 356°
2026-05-06 18:44 45.38567 9.28349 1286 ft 146 kts 356°
2026-05-06 18:44 45.39572 9.28236 1104 ft 144 kts 356°
2026-05-06 18:44 45.40545 9.28135 934 ft 138 kts 356°
2026-05-06 18:45 45.41494 9.28035 734 ft 135 kts 355°
2026-05-06 18:45 45.42433 9.27934 566 ft 135 kts 355°
2026-05-06 18:45 45.43367 9.27831 408 ft 137 kts 354°
2026-05-06 18:45 45.44290 9.27731 360 ft 122 kts 355°
2026-05-06 18:46 45.44908 9.27665 360 ft 47 kts 355°
2026-05-06 18:46 45.45083 9.27647 358 ft 22 kts 356°
2026-05-06 18:46 45.45246 9.27630 359 ft 25 kts 360°
2026-05-06 18:46 45.45391 9.27718 360 ft 17 kts 28°
2026-05-06 18:47 45.45445 9.27772 362 ft 2 kts 45°
2026-05-06 18:47 45.45457 9.27790 362 ft 5 kts 44°
2026-05-06 18:47 45.45514 9.27815 365 ft 11 kts
2026-05-06 18:47 45.45598 9.27817 363 ft 16 kts
2026-05-06 18:48 45.45717 9.27818 363 ft 18 kts
2026-05-06 18:48 45.45848 9.27820 363 ft 20 kts
2026-05-06 18:48 45.45907 9.27868 365 ft 9 kts 81°
2026-05-06 18:48 45.45908 9.27950 366 ft 8 kts 91°
2026-05-06 18:49 45.45913 9.28024 368 ft 6 kts 49°
2026-05-06 18:49 45.45947 9.28033 363 ft 4 kts 357°
2026-05-06 18:49 45.45972 9.28033 369 ft 1 kts